Content
SEND FEEDBACK

Daily
Averages
Monthly
Summary
United States of America

SYRACUSE, NEW YORK


Home > North America > United States > New York
Elevation: 421 feet     Latitude: 43 07N     Longitude: 076 07W

WEATHER
 
SELECT A DAY
Number of Records: 223,857;   Date Range: 1/1/95 - 7/29/14
 
SHARE

PRINT THIS DATA

[ ← Previous Day ]
WEATHER ALMANAC - MARCH 5, 2013
[ Next Day → ]
[ °C ]   °F
Weather ElementAverageHighLow
Temperature28.4 °F34 °F (4:54 pm)21.9 °F (10:54 pm)
Dewpoint20.4 °F21.9 °F (1:54 pm)17.1 °F (10:54 pm)
Humidity72.2 %82 % (10:54 pm)60 % (4:18 pm)
Barometer30.05 in30.09 in (7:54 am)30.00 in (1:07 am)
Wind Speed4.2 mph10.4 mph (1:07 am)
Weather ElementAverage
Visibility9.8 mi
Wind DirectionSE (133.7 °)

Weather ElementTotal
Precipitation---
Heating Degree Days37.1 (Base 65)
Averaged from 30 records on March 5, 2013
WEATHER CONDITIONS BREAKOUT
WIND DIRECTION BREAKOUT
WEATHER BY HOUR - MARCH 5, 2013
[ °C ]   °F
Local TimeTemperatureDewpointHumidityBarometerVisibilityWind DirectionWind SpeedGust SpeedPrecipitationEventsConditions
1:07 AM28.4 °F21.2 °F74 %30.00 in10.0 miWest (270°)10.4 mphOvercast
2:22 AM28.4 °F21.2 °F74 %30.01 in10.0 miWest (270°)10.4 mphOvercast
2:54 AM28.0 °F21.0 °F75 %30.01 in10.0 miWest (270°)9.2 mphOvercast
3:17 AM28.4 °F21.2 °F74 %30.01 in10.0 miWest (270°)6.9 mphOvercast
3:54 AM28.0 °F21.0 °F75 %30.03 in10.0 miWest (260°)9.2 mph0.00 inSnowLight Snow
4:54 AM28.0 °F21.0 °F75 %30.05 in9.0 miWest (260°)10.4 mph0.00 inSnowLight Snow
5:54 AM27.0 °F19.9 °F75 %30.06 in9.0 miWest (270°)9.2 mph0.00 inSnowLight Snow
6:24 AM26.6 °F19.4 °F74 %30.06 in10.0 miWest (270°)8.1 mph0.00 inOvercast
6:54 AM27.0 °F19.0 °F72 %30.07 in10.0 miWNW (300°)6.9 mph0.00 inOvercast
7:12 AM26.6 °F19.4 °F74 %30.08 in10.0 miNW (310°)5.8 mphOvercast
7:54 AM28.0 °F19.9 °F72 %30.09 in10.0 miWNW (300°)5.8 mphOvercast
8:29 AM26.6 °F21.2 °F80 %30.08 in8.0 miWSW (250°)8.1 mphOvercast
8:54 AM27.0 °F21.0 °F78 %30.09 in8.0 miWest (260°)6.9 mphOvercast
9:54 AM28.0 °F21.0 °F75 %30.09 in10.0 miWSW (250°)5.8 mphOvercast
10:54 AM28.9 °F21.0 °F72 %30.09 in10.0 miCalm0.00 inOvercast
11:54 AM30.0 °F21.0 °F69 %30.09 in10.0 miCalmOvercast
12:54 PM30.9 °F21.0 °F67 %30.08 in10.0 miCalmOvercast
1:26 PM30.2 °F21.2 °F69 %30.07 in10.0 miCalmOvercast
1:54 PM30.9 °F21.9 °F69 %30.08 in10.0 miCalmOvercast
2:54 PM33.1 °F21.9 °F64 %30.08 in10.0 miCalmMostly Cloudy
3:54 PM33.1 °F21.9 °F64 %30.06 in10.0 miCalmMostly Cloudy
4:18 PM33.8 °F21.2 °F60 %30.05 in10.0 miCalmScattered Clouds
4:54 PM34.0 °F21.9 °F61 %30.06 in10.0 miCalmPartly Cloudy
5:54 PM32.0 °F21.0 °F64 %30.04 in10.0 miCalmPartly Cloudy
6:54 PM28.9 °F19.9 °F69 %30.04 in10.0 miNorth (10°)4.6 mphPartly Cloudy
7:54 PM28.0 °F19.9 °F72 %30.04 in10.0 miCalmClear
8:54 PM25.0 °F18.0 °F75 %30.05 in10.0 miCalmClear
9:54 PM23.0 °F18.0 °F81 %30.04 in10.0 miCalmClear
10:54 PM21.9 °F17.1 °F82 %30.01 in10.0 miEast (80°)5.8 mphClear
11:54 PM23.0 °F18.0 °F81 %30.01 in10.0 miESE (110°)3.5 mphPartly Cloudy
Hourly data recorded from KSYR, located miles away from Syracuse, New York







STORIES FROM OUR PARTNERS